EUTELSAT 10A            
1 34710U 09016A   19261.84689240  .00000065  00000-0  00000-0 0  9992
2 34710   0.0668 359.8755 0005159 173.2359 139.2541  1.00269556 16555
BREEZE-M R/B            
1 34711U 09016B   19261.46689150 -.00000158  00000-0 -83548+0 0  9993
2 34711  21.2132  62.8783 5927104 237.7992  50.8246  2.20366751 92222
BREEZE-M DEB [TANK]     
1 34712U 09016C   19261.71767685  .00000707  00000-0  13586-3 0  9999
2 34712  46.0969 341.9517 5058726 125.1824 293.2142  5.52720326205517